IRIDIUM 33 DEB, 36483

Orbit data source: Space-Track

IRIDIUM 33 DEB, 36483 is space debris in LEO originally from a launch on Sun, 14 Sep 1997 UTC launched from the Tyuratam Missile And Space Complex (TTMTR). The debris from Iridium 33, an American commercial communications satellite, has been tracked extensively since its accidental collision with the defunct Russian satellite Cosmos 2251 in 2009. This event, occurring at high speed in low Earth orbit (LEO), generated thousands of pieces of space debris, significantly increasing the risk of further collisions. The Iridium 33 debris cloud has impacted space traffic management and orbital debris mitigation strategies, making it a subject of ongoing study in space situational awareness.

Loading next visibility...
Identifier
36483, 1997-051VZ
Orbit
LEO
Country
Flag of USUS
Related business
Manufacturer
Unknown
Mission
Spacecraft
Bus & Motor
Unknown
Mass
Unknown
Launch date (UTC)
1997-09-14 (29 years ago)
Launch vehicle
Unknown
Launch site
Tyuratam Missile And Space Complex (TTMTR)
Object type
Payload
Rocket body
Debris
Shape & HBR
Unknown shape, 0.1 m
Radar Cross Section
Small (<0.1 m²)

Expand to show TLE details & history
Last TLE update: 1 day ago

TLE from 1 day ago
0 IRIDIUM 33 DEB
1 36483U 97051VZ  26094.48330522  .00002639  00000-0  73077-3 0  9991
2 36483  86.3863   4.2210 0010762 108.2074 252.0301 14.46293558667758
Epoch: 2026-04-04T11:35Z
TLE epoch observation values (Epoch: 2026-04-04T11:35:57.571Z)
Latitude
0.00002°
Longitude
-2.57131°
Altitude
743.219 km
Speed
7.482 km/s
True Right ascension
00h 16m 53s
True Declination
0° 00' 00"
Sunlit
Object was in daylight at epoch
Visualization orbit readout
Latitude
Unknown
Longitude
Unknown
Altitude
Unknown
Speed
Unknown
Apparent Right ascension
Unknown
Apparent Declination
Unknown
Sunlit
N/A
Visualization observer readout
Local Sidereal Time
21:23:24
Azimuth
Unknown
Elevation
Unknown
Doppler factor
Unknown
Orbital elements
Apogee altitude
742.383 km
Perigee altitude
727.073 km
Semi-major axis
7,112.865 km
Eccentricity
0.00108
Inclination
86.3863°
RAAN
4.221°
Arg. of periapsis
108.2074°
True anomaly
251.91284°
Mean anomaly
252.0301°
Eccentric anomaly
251.97147°
Mean motion
3.61806 °/min
Orbital period
99.5 mins
BSTAR
0.00073077
Loading maneuver chart data...
Computing Atmospheric mass density...

Documentation

Showing up to 5 results
|